Location: Unspecified
(0.0000°N, 0.0000°E)
Time: 07:53:17
(UTC+00:00)

deb NOAA 5 - Pass Details

Date: 22 February 2026
Orbit: 1470 x 1835 km, 102.5° (Epoch: 10 March)

Event Time Altitude Azimuth Distance (km) Brightness Sun altitude
Rises 22:01:25 0° 187° (S) 4,783 ? -55.7°
Reaches altitude 10° 22:04:56 10° 199° (SSW) 3,746 ? -56.5°
Enters shadow 22:05:37 12° 202° (SSW) 3,563 ? -56.7°
